DW6725 Weather Reports


Display with metric or nautical units.
time (UTC)temp
F
wind
direction
speed
MPH
gust
MPH
rain 1hr
in
rain 24hr
in
rain mn
in
humidity
%
barometer
mb
20260901173004 77 2 1.0 3.0 0.00 0.12 0.07 88 1014.2
20260901172006 76 14 1.0 3.0 0.00 0.12 0.07 88 1014.3
20260901171005 76 44 2.0 5.0 0.00 0.12 0.07 87 1014.2
20260901170004 77 38 2.0 5.0 0.00 0.12 0.07 87 1014.3
20260901165005 77 43 0.0 4.0 0.00 0.12 0.07 88 1014.2
20260901164004 77 25 1.0 5.0 0.00 0.12 0.07 90 1014.1
20260901163005 77 28 1.0 5.0 0.00 0.12 0.07 92 1014.2
20260901162004 76 27 1.0 6.0 0.00 0.12 0.07 95 1013.9
20260901161005 76 32 0.0 2.0 0.00 0.12 0.07 96 1013.9
20260901160004 75 45 0.0 3.0 0.00 0.12 0.07 97 1014.0
20260901155004 75 42 0.0 4.0 0.00 0.12 0.07 99 1014.0
20260901154004 75 17 1.0 5.0 0.00 0.12 0.07 100 1014.1
20260901153004 74 288 0.0 5.0 0.00 0.12 0.07 100 1014.0
20260901152004 72 205 0.0 4.0 0.00 0.12 0.07 99 1014.0
20260901151215 72 0 0.0 0.0 0.00 0.12 0.07 99 1013.9
20260901150005 71 0 0.0 0.0 0.00 0.12 0.07 100 1014.1
20260901145003 70 0 0.0 0.0 0.00 0.12 0.07 100 1014.1
20260901144005 70 20 0.0 4.0 0.00 0.12 0.07 100 1014.6
20260901143003 70 0 0.0 0.0 0.00 0.13 0.07 100 1014.4
20260901142003 70 0 0.0 0.0 0.00 0.14 0.07 100 1014.2
20260901141003 70 0 0.0 0.0 0.00 0.15 0.07 100 1014.3
20260901140003 70 0 0.0 0.0 0.00 0.15 0.07 100 1014.1
20260901135004 70 0 0.0 0.0 0.00 0.15 0.07 100 1014.1
20260901134217 70 0 0.0 1.0 0.00 0.15 0.07 100 1014.0
20260901133213 70 0 0.0 1.0 0.00 0.15 0.07 100 1014.0
20260901132005 70 0 0.0 1.0 0.00 0.15 0.07 100 1014.3
20260901131214 70 13 1.0 6.0 0.00 0.15 0.07 100 1014.2
20260901130003 70 0 0.0 0.0 0.00 0.15 0.07 100 1014.1
20260901125004 70 0 0.0 0.0 0.00 0.15 0.07 100 1014.2
20260901124004 69 0 0.0 0.0 0.00 0.15 0.07 100 1014.2
20260901123003 69 0 0.0 0.0 0.00 0.15 0.07 100 1014.4
20260901122004 69 0 0.0 0.0 0.00 0.15 0.07 100 1014.6
20260901121003 69 0 0.0 0.0 0.00 0.15 0.07 100 1014.5
20260901120004 69 0 0.0 0.0 0.00 0.15 0.07 100 1014.7
20260901115003 69 0 0.0 0.0 0.00 0.15 0.07 100 1014.7
20260901114004 69 0 0.0 0.0 0.00 0.15 0.07 100 1014.5
20260901113004 68 0 0.0 0.0 0.00 0.15 0.07 100 1014.6
20260901112005 68 0 0.0 0.0 0.00 0.15 0.07 100 1014.7
20260901111003 68 0 0.0 0.0 0.00 0.15 0.07 100 1014.6
20260901110005 68 0 0.0 0.0 0.00 0.15 0.07 100 1014.7
20260901105004 68 0 0.0 0.0 0.00 0.15 0.07 100 1014.6
20260901104004 68 0 0.0 0.0 0.00 0.15 0.07 100 1014.4
20260901103004 68 0 0.0 0.0 0.01 0.15 0.07 100 1014.4
20260901102004 68 0 0.0 0.0 0.04 0.15 0.07 100 1014.1
20260901101005 68 135 1.0 3.0 0.05 0.15 0.07 100 1014.1
20260901100006 69 135 1.0 3.0 0.05 0.15 0.07 100 1014.2
20260901095004 69 0 0.0 0.0 0.05 0.15 0.07 100 1014.7
20260901094004 69 0 0.0 0.0 0.05 0.15 0.07 100 1014.9
20260901093005 69 0 0.0 0.0 0.02 0.13 0.05 100 1015.2
20260901092213 69 0 0.0 1.0 0.01 0.12 0.04 100 1014.8
20260901091007 69 135 1.0 3.0 0.00 0.11 0.02 100 1014.5
20260901090004 69 142 1.0 4.0 0.00 0.11 0.02 100 1014.4
20260901085213 69 141 0.0 3.0 0.00 0.11 0.02 100 1014.2
20260901084214 69 137 0.0 2.0 0.00 0.11 0.02 100 1014.3
20260901083005 69 135 0.0 3.0 0.00 0.11 0.02 100 1014.4
20260901082005 68 156 1.0 3.0 0.00 0.11 0.02 100 1014.5
20260901081215 68 142 0.0 3.0 0.00 0.11 0.02 100 1014.5
20260901080003 68 145 0.0 2.0 0.01 0.11 0.02 100 1014.8
20260901075005 68 169 0.0 3.0 0.02 0.11 0.02 100 1014.8
20260901074003 68 0 0.0 0.0 0.02 0.11 0.02 100 1015.1
20260901073003 68 0 0.0 2.0 0.02 0.11 0.02 100 1015.1
20260901072006 68 0 0.0 1.0 0.02 0.11 0.02 100 1015.2
20260901071004 68 0 0.0 0.0 0.02 0.11 0.02 100 1015.4
20260901070005 68 0 0.0 0.0 0.00 0.08 0.00 100 1015.5
20260901065004 68 0 0.0 0.0 0.00 0.08 0.00 100 1015.6
20260901064003 68 0 0.0 0.0 0.00 0.08 0.00 100 1015.8
20260901063004 68 0 0.0 0.0 0.00 0.08 0.00 100 1015.7
20260901062003 68 0 0.0 0.0 0.00 0.08 0.00 100 1015.7
20260901061004 68 0 0.0 0.0 0.00 0.08 0.00 100 1015.7
20260901060003 68 0 0.0 0.0 0.00 0.08 0.00 100 1015.7
20260901055003 68 0 0.0 0.0 0.00 0.08 0.00 100 1015.9
20260901054003 68 0 0.0 0.0 0.00 0.08 0.00 100 1015.8
20260901053003 68 0 0.0 0.0 0.00 0.08 0.00 100 1016.2
20260901052004 68 0 0.0 0.0 0.00 0.08 0.00 100 1016.3
20260901051003 68 0 0.0 0.0 0.00 0.08 0.00 100 1016.2
20260901050003 68 0 0.0 0.0 0.00 0.08 0.00 100 1016.1
20260901045213 68 0 0.0 0.0 0.00 0.08 0.00 100 1016.2
20260901044215 68 0 0.0 0.0 0.00 0.08 0.00 100 1016.3
20260901043215 68 0 0.0 0.0 0.00 0.08 0.00 100 1016.4
20260901042003 68 0 0.0 0.0 0.00 0.08 0.00 100 1016.5
20260901041003 68 0 0.0 0.0 0.00 0.08 0.00 100 1016.6
20260901040217 68 0 0.0 0.0 0.00 0.08 0.00 100 1016.5
20260901035215 68 0 0.0 0.0 0.00 0.08 0.08 100 1016.5
20260901034215 68 0 0.0 0.0 0.00 0.08 0.08 100 1016.6
20260901033215 68 0 0.0 0.0 0.00 0.08 0.08 100 1016.6
20260901032004 68 0 0.0 0.0 0.00 0.08 0.08 100 1016.8
20260901031005 68 0 0.0 0.0 0.00 0.08 0.08 100 1016.9
20260901030004 68 0 0.0 0.0 0.00 0.08 0.08 100 1016.7
20260901025005 68 0 0.0 0.0 0.00 0.08 0.08 100 1016.7
20260901024004 68 0 0.0 0.0 0.01 0.08 0.08 100 1016.8
20260901023214 68 0 0.0 0.0 0.01 0.08 0.08 100 1016.8
20260901022004 68 0 0.0 0.0 0.01 0.08 0.08 100 1016.8
20260901021004 68 0 0.0 0.0 0.01 0.08 0.08 100 1016.8
20260901020214 68 0 0.0 0.0 0.01 0.08 0.08 100 1017.0
20260901015004 68 0 0.0 0.0 0.01 0.08 0.08 100 1017.2
20260901014003 68 0 0.0 0.0 0.00 0.07 0.07 100 1017.2
20260901013004 68 0 0.0 0.0 0.00 0.07 0.07 100 1017.3
20260901012004 68 0 0.0 0.0 0.00 0.07 0.07 99 1017.3
20260901011004 68 0 0.0 0.0 0.00 0.07 0.07 99 1017.2
20260901010005 68 0 0.0 0.0 0.00 0.07 0.07 99 1017.0
20260901005005 68 0 0.0 0.0 0.00 0.07 0.07 99 1017.1
20260901004007 68 0 0.0 0.0 0.00 0.07 0.07 98 1017.0
20260901003003 68 0 0.0 0.0 0.00 0.07 0.07 98 1017.1
20260901002003 68 0 0.0 0.0 0.00 0.07 0.07 98 1016.9
20260901001215 68 0 0.0 0.0 0.00 0.07 0.07 98 1016.9
20260901000003 68 0 0.0 0.0 0.01 0.07 0.07 97 1016.9
20260831235003 68 0 0.0 0.0 0.01 0.07 0.07 97 1016.8
20260831234213 68 0 0.0 0.0 0.01 0.07 0.07 97 1016.9
20260831233213 68 0 0.0 0.0 0.02 0.07 0.07 97 1017.0
20260831232003 69 0 0.0 0.0 0.02 0.07 0.07 96 1017.0
20260831231003 69 0 0.0 0.0 0.02 0.07 0.07 96 1017.0
20260831230005 69 0 0.0 1.0 0.01 0.06 0.06 95 1017.1
20260831225003 69 0 0.0 1.0 0.01 0.06 0.06 95 1017.0
20260831224004 69 0 0.0 1.0 0.01 0.06 0.06 95 1017.2
20260831223003 69 179 0.0 3.0 0.00 0.05 0.05 94 1017.3
20260831222005 70 0 0.0 2.0 0.01 0.05 0.05 94 1017.3
20260831221004 70 263 0.0 3.0 0.01 0.05 0.05 94 1017.3
20260831220003 70 270 0.0 2.0 0.01 0.05 0.05 94 1017.4
20260831215004 69 0 0.0 0.0 0.01 0.05 0.05 94 1017.4
20260831214003 69 0 0.0 0.0 0.01 0.05 0.05 93 1017.5
20260831213004 69 0 0.0 0.0 0.01 0.05 0.05 92 1017.5
20260831212004 69 0 0.0 0.0 0.00 0.04 0.04 91 1017.7
20260831211003 69 0 0.0 1.0 0.00 0.04 0.04 91 1017.8
20260831210005 69 0 0.0 0.0 0.00 0.04 0.04 91 1017.8
20260831205004 69 0 0.0 0.0 0.00 0.04 0.04 90 1018.1
20260831204004 69 0 0.0 2.0 0.00 0.04 0.04 90 1018.0
20260831203004 69 0 0.0 2.0 0.00 0.04 0.04 89 1018.1
20260831202005 69 159 0.0 2.0 0.00 0.04 0.04 89 1018.1
20260831201006 70 167 1.0 3.0 0.00 0.04 0.04 89 1018.0
20260831200004 70 159 0.0 3.0 0.00 0.04 0.04 89 1018.0
20260831195005 69 148 1.0 3.0 0.00 0.04 0.04 90 1017.9
20260831194006 69 142 1.0 3.0 0.00 0.04 0.04 89 1017.9
20260831193004 69 143 1.0 3.0 0.00 0.04 0.04 89 1018.2
20260831192005 69 141 0.0 3.0 0.00 0.04 0.04 89 1018.4
20260831191004 69 0 0.0 0.0 0.00 0.04 0.04 89 1018.4
20260831190005 69 150 0.0 4.0 0.00 0.04 0.04 89 1018.5
20260831185004 70 6 0.0 3.0 0.00 0.04 0.04 89 1018.7
20260831184215 70 241 1.0 3.0 0.00 0.04 0.04 89 1018.6
20260831183004 69 152 0.0 2.0 0.00 0.04 0.04 90 1018.8
20260831182005 69 0 0.0 2.0 0.00 0.04 0.04 92 1018.9
20260831181005 69 315 0.0 2.0 0.00 0.04 0.04 94 1018.8
20260831180004 68 0 0.0 0.0 0.00 0.04 0.04 93 1018.9
20260831175005 68 0 0.0 1.0 0.00 0.04 0.04 94 1019.3
20260831174003 67 0 0.0 0.0 0.00 0.04 0.04 93 1019.4